Location: Unspecified
(0.0000°N, 0.0000°E)
Time: 03:06:33
(UTC+00:00)

Explorer 7 - Visible Passes

Search period start: 03 March 2015 00:00
Search period end: 13 March 2015 00:00
Orbit: 489 x 697 km, 50.3° (Epoch: 02 March)

Date Brightness Start Highest point End Pass type
(mag) Time Alt. Az. Time Alt. Az. Time Alt. Az.
10 Mar 9.6 19:41:16 10° SSE 19:41:28 11° SSE 19:41:28 11° SSE visible
11 Mar 8.9 19:48:17 10° S 19:50:24 22° S 19:50:24 22° S visible
12 Mar 8.0 19:56:13 10° SSW 19:59:29 42° SSW 19:59:29 42° SSW visible
